weather.gov     
National Weather Service

Regional Weather Roundup
NWS Homepage
This page is being discontinued on March 12, 2014.
The same data is available at this site. Please update your bookmarks.
Thank you, and we apologize for the inconvenience.
Please send an email to SR-SRH.Webmaster@noaa.gov with any concerns.


Current Version
Previous Version:    01  02  03  04  05  06  07  08  09  10  11  12  13  14  15  16  17  18  19  20  21  22  23  24  25  26  
[Printable]
460
ASUS44 KBMX 300410
RWRAL

ALABAMA REGIONAL WEATHER ROUNDUP
NATIONAL WEATHER SERVICE BIRMINGHAM AL
1000 PM CST THU JAN 29 2015

NOTE: "FAIR" INDICATES FEW OR NO CLOUDS BELOW 12,000 FEET
WITH NO SIGNIFICANT WEATHER AND/OR OBSTRUCTIONS TO VISIBILITY.

THE REMARK "TC" DENOTES TEMPERATURE IN DEGREES CELSIUS.

ALZ001>011-014-016>018-020-300500-
NORTH ALABAMA

CITY           SKY/WX    TMP DP  RH WIND       PRES   REMARKS
MUSCLE SHOALS  CLOUDY    44  30  57 N9G22     30.33R
HUNTSVILLE     CLOUDY    46  34  62 N14G26    30.27R
DECATUR        CLOUDY    44  34  67 NW17      30.29R
HALEYVILLE       N/A     42  33  70 N12G22    30.30R
GADSDEN        MOCLDY   N/A N/A N/A N20G30    30.18R
$$

ALZ012-013-022-023-030>036-040>044-300500-
WEST CENTRAL ALABAMA

CITY           SKY/WX    TMP DP  RH WIND       PRES   REMARKS
TUSCALOOSA     CLOUDY    56  41  57 N17G26    30.23R
$$

ALZ015-024>027-033>036-040>044-300500-
CENTRAL ALABAMA

CITY           SKY/WX    TMP DP  RH WIND       PRES   REMARKS
BIRMINGHAM     CLOUDY    53  39  59 N15G25    30.21R
MONTGOMERY     CLOUDY    61  50  67 SW8       30.16R
SHELBY CO ARPT CLOUDY    60  47  61 NW13      30.16R
MAXWELL AFB    MOCLDY    59  50  72 SW6       30.14R
GREENVILLE     FAIR      58  51  78 SW9       30.16R
$$

ALZ019-021-028-029-037-038-045>048-300500-
EAST CENTRAL ALABAMA

CITY           SKY/WX    TMP DP  RH WIND       PRES   REMARKS
ANNISTON       CLOUDY    54  44  69 SW5       30.12S
ALEXANDER CITY MOCLDY    60  46  57 SW5       30.13R
AUBURN         CLOUDY    54  45  71 SW10      30.16R
$$

ALZ051>064-300500-
SOUTHWEST ALABAMA

CITY           SKY/WX    TMP DP  RH WIND       PRES   REMARKS
MOBILE         PTCLDY    57  54  89 SW6       30.21R
BROOKLEY FIELD CLEAR     62  56  80 SW7       30.21S
EVERGREEN      CLEAR     57  53  86 SW7       30.18F
$$

ALZ049-050-065>069-300500-
SOUTHEAST ALABAMA

CITY           SKY/WX    TMP DP  RH WIND       PRES   REMARKS
DOTHAN         PTCLDY    54  50  86 SW8       30.21F
OZARK          CLOUDY    53  49  87 S7        30.18F
TROY           MOCLDY    57  50  77 SW8       30.17S
EUFAULA        FAIR      57  50  77 SW6       30.15F
$$




U.S. Dept. of Commerce
NOAA National Weather Service
1325 East West Highway
Silver Spring, MD 20910
E-mail: w-nws.webmaster@noaa.gov
Page last modified: May 16, 2007
NATIONAL WEATHER SERVICE: for Safety, for Work, for Fun - FOR LIFE